Torna al catalogo

COSMOS 450

AttivoMilitareLEO
NORAD 5553·PAYLOAD·🇷🇺 Russia

Lanciato Oct 13, 1971 da Plesetsk Cosmodrome

Loading…

Prossimi Passaggi (prossime 24 ore)

TLE

AggiornatoSource: Space-Track

Epoca: Sep 14, 2026, 09:17 UTC

1 05553U 71086G   26257.38744524 -.00000024  00000-0 -61966-4 0  9999
2 05553  74.0263 223.6283 0043461 312.9856 216.1124 12.42701613491480

Traccia COSMOS 450 in tempo reale con AllMySat

Download on the App Store